This is the latest recevied weather packets stored in our database for station/object KC4GS-13. If no packets are shown the sender has not sent any weather packets the latest 10 day(s).
| Time | Temp. | Humidity | Pressure | Rain* | Wind** | Luminosity | Snow |
|---|---|---|---|---|---|---|---|
| 1777941213 | 20° C | 54% | 1016 hPa | 0 mm | - | 0 W/m² | - |
| 1777940908 | 20° C | 54% | 1016.1 hPa | 0 mm | - | 0 W/m² | - |
| 1777940606 | 20° C | 53% | 1016.2 hPa | 0 mm | - | 0 W/m² | - |
| 1777940304 | 20.56° C | 54% | 1015.9 hPa | 0 mm | - | 0 W/m² | - |
| 1777940000 | 20.56° C | 51% | 1016 hPa | 0 mm | - | 2 W/m² | - |
| 1777939698 | 21.11° C | 50% | 1016 hPa | 0 mm | - | 4 W/m² | - |
| 1777939396 | 21.67° C | 49% | 1016.2 hPa | 0 mm | - | 7 W/m² | - |
| 1777939092 | 21.67° C | 49% | 1016.1 hPa | 0 mm | - | 8 W/m² | - |
| 1777938789 | 21.67° C | 48% | 1015.9 hPa | 0 mm | - | 12 W/m² | - |
| 1777938486 | 22.22° C | 48% | 1015.9 hPa | 0 mm | - | 15 W/m² | - |
| 1777938184 | 22.78° C | 45% | 1016 hPa | 0 mm | - | 17 W/m² | - |
| 1777937879 | 23.33° C | 45% | 1015.9 hPa | 0 mm | - | 19 W/m² | - |
| 1777937575 | 23.33° C | 43% | 1015.8 hPa | 0 mm | - | 24 W/m² | - |
| 1777937272 | 23.89° C | 43% | 1016 hPa | 0 mm | - | 29 W/m² | - |
| 1777936969 | 23.89° C | 43% | 1016.1 hPa | 0 mm | - | 34 W/m² | - |
| 1777936666 | 23.89° C | 41% | 1015.7 hPa | 0 mm | - | 37 W/m² | - |
| 1777936363 | 23.89° C | 40% | 1015.8 hPa | 0 mm | - | 41 W/m² | - |
| 1777936058 | 24.44° C | 38% | 1015.7 hPa | 0 mm | - | 48 W/m² | - |
| 1777935757 | 24.44° C | 39% | 1015.8 hPa | 0 mm | - | 56 W/m² | - |
| 1777935456 | 25° C | 37% | 1015.7 hPa | 0 mm | - | 63 W/m² | - |
| 1777935151 | 25° C | 36% | 1016 hPa | 0 mm | - | 71 W/m² | - |
| 1777934849 | 25° C | 35% | 1015.9 hPa | 0 mm | - | 79 W/m² | - |
| 1777934546 | 25.56° C | 35% | 1015.7 hPa | 0 mm | - | 81 W/m² | - |
| 1777934242 | 25.56° C | 35% | 1015.8 hPa | 0 mm | - | 85 W/m² | - |
| 1777933938 | 25.56° C | 35% | 1015.7 hPa | 0 mm | - | 84 W/m² | - |
* Rain latest hour (hover to see other rain measurements)
** Current wind speed in m/s (hover to see current wind gust speed)